| time (UTC) | temp F | wind direction | speed knots | gust knots | rain 1hr in | rain 24hr in | rain mn in | humidity % | barometer mb |
| 20260503020805 | 63 | 17 | 0.9 | 1.7 | 0.00 | 0.00 | 0.00 | 40 | 1016.4 |
| 20260503020303 | 63 | 19 | 1.7 | 1.7 | 0.00 | 0.00 | 0.00 | 39 | 1016.3 |
| 20260503015759 | 64 | 34 | 1.7 | 1.7 | 0.00 | 0.00 | 0.00 | 37 | 1016.3 |
| 20260503015256 | 64 | 53 | 0.0 | 0.0 | 0.00 | 0.00 | 0.00 | 37 | 1016.4 |
| 20260503014752 | 64 | 33 | 0.0 | 0.0 | 0.00 | 0.00 | 0.00 | 35 | 1016.2 |
| 20260503014250 | 64 | 31 | 0.0 | 0.0 | 0.00 | 0.00 | 0.00 | 36 | 1016.3 |
| 20260503013747 | 64 | 30 | 0.0 | 0.0 | 0.00 | 0.00 | 0.00 | 36 | 1016.2 |
| 20260503013244 | 65 | 31 | 0.0 | 0.0 | 0.00 | 0.00 | 0.00 | 35 | 1016.5 |
| 20260503012741 | 66 | 31 | 0.0 | 0.9 | 0.00 | 0.00 | 0.00 | 33 | 1016.6 |
| 20260503012239 | 66 | 18 | 0.0 | 0.0 | 0.00 | 0.00 | 0.00 | 33 | 1016.5 |
| 20260503011735 | 67 | 37 | 0.0 | 0.0 | 0.00 | 0.00 | 0.00 | 33 | 1016.5 |
| 20260503011232 | 66 | 37 | 0.0 | 0.0 | 0.00 | 0.00 | 0.00 | 33 | 1016.6 |
| 20260503010728 | 66 | 48 | 0.9 | 0.9 | 0.00 | 0.00 | 0.00 | 33 | 1016.6 |
| 20260503010225 | 67 | 81 | 0.0 | 0.9 | 0.00 | 0.00 | 0.00 | 33 | 1016.6 |
| 20260503005723 | 66 | 56 | 0.9 | 0.9 | 0.00 | 0.00 | 0.00 | 33 | 1016.4 |
| 20260503005220 | 66 | 47 | 2.6 | 2.6 | 0.00 | 0.00 | 0.00 | 34 | 1016.6 |
| 20260503004716 | 66 | 50 | 2.6 | 2.6 | 0.00 | 0.00 | 0.00 | 34 | 1016.6 |
| 20260503004215 | 66 | 24 | 2.6 | 4.3 | 0.00 | 0.00 | 0.00 | 34 | 1016.6 |
| 20260503003711 | 66 | 51 | 4.3 | 5.2 | 0.00 | 0.00 | 0.00 | 34 | 1016.7 |
| 20260503003208 | 66 | 358 | 1.7 | 2.6 | 0.00 | 0.00 | 0.00 | 33 | 1016.7 |
| 20260503002705 | 66 | 349 | 0.9 | 0.9 | 0.00 | 0.00 | 0.00 | 33 | 1016.8 |
| 20260503002202 | 66 | 11 | 2.6 | 2.6 | 0.00 | 0.00 | 0.00 | 34 | 1016.9 |
| 20260503001658 | 66 | 292 | 0.0 | 0.0 | 0.00 | 0.00 | 0.00 | 33 | 1016.9 |
| 20260503001154 | 67 | 356 | 3.5 | 4.3 | 0.00 | 0.00 | 0.00 | 33 | 1016.9 |
| 20260503000652 | 67 | 293 | 1.7 | 1.7 | 0.00 | 0.00 | 0.00 | 33 | 1016.9 |
| 20260503000149 | 67 | 231 | 0.0 | 0.0 | 0.00 | 0.00 | 0.00 | 33 | 1016.9 |
| 20260502235646 | 68 | 207 | 1.7 | 1.7 | 0.00 | 0.00 | 0.00 | 33 | 1017.1 |
| 20260502235144 | 68 | 65 | 0.0 | 0.9 | 0.00 | 0.00 | 0.00 | 32 | 1017.2 |
| 20260502234640 | 69 | 156 | 0.9 | 1.7 | 0.00 | 0.00 | 0.00 | 32 | 1017.2 |
| 20260502234137 | 68 | 167 | 0.0 | 0.0 | 0.00 | 0.00 | 0.00 | 32 | 1017.3 |
| 20260502233633 | 69 | 150 | 3.5 | 5.2 | 0.00 | 0.00 | 0.00 | 32 | 1017.2 |
| 20260502233130 | 69 | 251 | 0.0 | 0.9 | 0.00 | 0.00 | 0.00 | 31 | 1017.3 |
| 20260502232626 | 69 | 253 | 0.9 | 0.9 | 0.00 | 0.00 | 0.00 | 31 | 1017.5 |
| 20260502232124 | 69 | 233 | 2.6 | 2.6 | 0.00 | 0.00 | 0.00 | 31 | 1017.6 |
| 20260502231620 | 68 | 352 | 0.9 | 1.7 | 0.00 | 0.00 | 0.00 | 32 | 1017.7 |
| 20260502231118 | 68 | 120 | 0.9 | 1.7 | 0.00 | 0.00 | 0.00 | 33 | 1017.5 |
| 20260502230616 | 69 | 4 | 4.3 | 6.1 | 0.00 | 0.00 | 0.00 | 32 | 1017.7 |
| 20260502230114 | 68 | 168 | 0.0 | 0.0 | 0.00 | 0.00 | 0.00 | 32 | 1017.9 |
| 20260502225609 | 69 | 48 | 2.6 | 2.6 | 0.00 | 0.00 | 0.00 | 33 | 1017.8 |
| 20260502225107 | 69 | 97 | 2.6 | 2.6 | 0.00 | 0.00 | 0.00 | 32 | 1017.8 |
| 20260502224603 | 67 | 82 | 2.6 | 2.6 | 0.00 | 0.00 | 0.00 | 33 | 1017.7 |
| 20260502224100 | 67 | 287 | 0.9 | 1.7 | 0.00 | 0.00 | 0.00 | 33 | 1017.9 |
| 20260502223558 | 68 | 19 | 4.3 | 5.2 | 0.00 | 0.00 | 0.00 | 34 | 1018.0 |
| 20260502223056 | 68 | 38 | 7.0 | 7.8 | 0.00 | 0.00 | 0.00 | 34 | 1018.3 |
| 20260502222553 | 67 | 344 | 4.3 | 5.2 | 0.00 | 0.00 | 0.00 | 33 | 1018.2 |
| 20260502222049 | 67 | 323 | 1.7 | 2.6 | 0.00 | 0.00 | 0.00 | 33 | 1018.2 |
| 20260502221545 | 67 | 6 | 5.2 | 5.2 | 0.00 | 0.00 | 0.00 | 33 | 1018.3 |
| 20260502221043 | 67 | 8 | 5.2 | 5.2 | 0.00 | 0.00 | 0.00 | 34 | 1018.2 |
| 20260502220538 | 67 | 3 | 5.2 | 6.1 | 0.00 | 0.00 | 0.00 | 33 | 1018.6 |
| 20260502220035 | 67 | 7 | 6.1 | 11.3 | 0.00 | 0.00 | 0.00 | 33 | 1018.4 |
| 20260502215532 | 66 | 339 | 1.7 | 2.6 | 0.00 | 0.00 | 0.00 | 35 | 1018.8 |
| 20260502215029 | 66 | 302 | 0.0 | 0.0 | 0.00 | 0.00 | 0.00 | 34 | 1018.8 |
| 20260502214526 | 68 | 22 | 6.1 | 6.1 | 0.00 | 0.00 | 0.00 | 34 | 1018.8 |
| 20260502214024 | 67 | 357 | 3.5 | 5.2 | 0.00 | 0.00 | 0.00 | 35 | 1018.7 |
| 20260502213520 | 66 | 48 | 1.7 | 1.7 | 0.00 | 0.00 | 0.00 | 34 | 1018.7 |
| 20260502213018 | 66 | 9 | 4.3 | 5.2 | 0.00 | 0.00 | 0.00 | 36 | 1019.0 |
| 20260502212517 | 67 | 22 | 4.3 | 6.1 | 0.00 | 0.00 | 0.00 | 35 | 1019.0 |
| 20260502212014 | 67 | 315 | 4.3 | 5.2 | 0.00 | 0.00 | 0.00 | 34 | 1019.0 |
| 20260502211509 | 67 | 13 | 3.5 | 4.3 | 0.00 | 0.00 | 0.00 | 34 | 1019.4 |
| 20260502211007 | 67 | 348 | 3.5 | 5.2 | 0.00 | 0.00 | 0.00 | 34 | 1019.1 |
| 20260502210504 | 67 | 28 | 6.1 | 7.0 | 0.00 | 0.00 | 0.00 | 34 | 1019.0 |
| 20260502210001 | 66 | 20 | 6.1 | 6.1 | 0.00 | 0.00 | 0.00 | 35 | 1019.1 |
| 20260502205456 | 67 | 340 | 1.7 | 2.6 | 0.00 | 0.00 | 0.00 | 35 | 1019.1 |
| 20260502204954 | 68 | 24 | 4.3 | 6.1 | 0.00 | 0.00 | 0.00 | 34 | 1019.2 |
| 20260502204451 | 67 | 350 | 2.6 | 4.3 | 0.00 | 0.00 | 0.00 | 34 | 1019.4 |
| 20260502203949 | 66 | 47 | 5.2 | 5.2 | 0.00 | 0.00 | 0.00 | 34 | 1019.4 |
| 20260502203446 | 65 | 29 | 4.3 | 5.2 | 0.00 | 0.00 | 0.00 | 35 | 1019.6 |
| 20260502202942 | 65 | 30 | 5.2 | 6.1 | 0.00 | 0.00 | 0.00 | 36 | 1019.5 |
| 20260502202439 | 64 | 48 | 0.0 | 0.0 | 0.00 | 0.00 | 0.00 | 35 | 1019.5 |
| 20260502201937 | 65 | 46 | 5.2 | 6.1 | 0.00 | 0.00 | 0.00 | 34 | 1019.6 |
| 20260502201433 | 65 | 28 | 2.6 | 2.6 | 0.00 | 0.00 | 0.00 | 35 | 1019.7 |
| 20260502200930 | 65 | 346 | 1.7 | 1.7 | 0.00 | 0.00 | 0.00 | 35 | 1019.6 |
| 20260502200425 | 65 | 55 | 4.3 | 7.0 | 0.00 | 0.00 | 0.00 | 35 | 1019.7 |
| 20260502195923 | 66 | 326 | 4.3 | 5.2 | 0.00 | 0.00 | 0.00 | 34 | 1019.7 |
| 20260502195420 | 66 | 28 | 7.0 | 7.8 | 0.00 | 0.00 | 0.00 | 34 | 1019.9 |
| 20260502194916 | 66 | 316 | 0.9 | 0.9 | 0.00 | 0.00 | 0.00 | 34 | 1019.9 |
| 20260502194414 | 65 | 19 | 6.1 | 6.1 | 0.00 | 0.00 | 0.00 | 35 | 1019.9 |
| 20260502193909 | 65 | 7 | 1.7 | 2.6 | 0.00 | 0.00 | 0.00 | 35 | 1020.0 |
| 20260502193407 | 65 | 357 | 4.3 | 5.2 | 0.00 | 0.00 | 0.00 | 36 | 1020.0 |
| 20260502192902 | 66 | 35 | 6.1 | 7.8 | 0.00 | 0.00 | 0.00 | 34 | 1020.1 |
| 20260502192359 | 67 | 51 | 5.2 | 7.0 | 0.00 | 0.00 | 0.00 | 35 | 1020.0 |
| 20260502191856 | 66 | 304 | 0.9 | 2.6 | 0.00 | 0.00 | 0.00 | 35 | 1020.2 |
| 20260502191354 | 66 | 248 | 0.9 | 0.9 | 0.00 | 0.00 | 0.00 | 35 | 1020.1 |
| 20260502190851 | 67 | 306 | 2.6 | 2.6 | 0.00 | 0.00 | 0.00 | 34 | 1020.4 |
| 20260502190348 | 66 | 13 | 4.3 | 4.3 | 0.00 | 0.00 | 0.00 | 35 | 1020.3 |
| 20260502185844 | 66 | 8 | 5.2 | 7.0 | 0.00 | 0.00 | 0.00 | 35 | 1020.4 |
| 20260502185340 | 65 | 6 | 1.7 | 4.3 | 0.00 | 0.00 | 0.00 | 36 | 1020.3 |
| 20260502184837 | 66 | 16 | 3.5 | 4.3 | 0.00 | 0.00 | 0.00 | 36 | 1020.3 |
| 20260502184333 | 66 | 13 | 2.6 | 4.3 | 0.00 | 0.00 | 0.00 | 36 | 1020.4 |
| 20260502183829 | 65 | 25 | 1.7 | 1.7 | 0.00 | 0.00 | 0.00 | 37 | 1020.4 |
| 20260502183326 | 65 | 359 | 4.3 | 7.0 | 0.00 | 0.00 | 0.00 | 36 | 1020.7 |
| 20260502182821 | 65 | 7 | 5.2 | 7.0 | 0.00 | 0.00 | 0.00 | 37 | 1020.6 |
| 20260502182316 | 64 | 48 | 2.6 | 2.6 | 0.00 | 0.00 | 0.00 | 38 | 1020.7 |
| 20260502181813 | 64 | 339 | 5.2 | 7.8 | 0.00 | 0.00 | 0.00 | 38 | 1020.8 |
| 20260502181312 | 63 | 25 | 2.6 | 5.2 | 0.00 | 0.00 | 0.00 | 39 | 1020.9 |
| 20260502180809 | 63 | 47 | 3.5 | 5.2 | 0.00 | 0.00 | 0.00 | 39 | 1020.8 |
| 20260502180306 | 65 | 43 | 5.2 | 7.0 | 0.00 | 0.00 | 0.00 | 37 | 1020.9 |
| 20260502170220 | 64 | 103 | 0.9 | 0.9 | 0.00 | 0.00 | 0.00 | 39 | 1021.1 |
| 20260502164207 | 63 | 24 | 4.3 | 5.2 | 0.00 | 0.00 | 0.00 | 38 | 1021.2 |
| 20260502163702 | 62 | 127 | 0.9 | 1.7 | 0.00 | 0.00 | 0.00 | 39 | 1021.3 |
| 20260502163159 | 61 | 160 | 5.2 | 6.1 | 0.00 | 0.00 | 0.00 | 40 | 1021.2 |
| 20260502162656 | 63 | 229 | 1.7 | 2.6 | 0.00 | 0.00 | 0.00 | 38 | 1021.2 |
| 20260502162153 | 62 | 209 | 3.5 | 4.3 | 0.00 | 0.00 | 0.00 | 39 | 1021.2 |
| 20260502161650 | 62 | 303 | 1.7 | 1.7 | 0.00 | 0.00 | 0.00 | 39 | 1021.3 |
| 20260502161147 | 61 | 216 | 2.6 | 2.6 | 0.00 | 0.00 | 0.00 | 41 | 1021.3 |
| 20260502160645 | 60 | 321 | 3.5 | 5.2 | 0.00 | 0.00 | 0.00 | 41 | 1021.4 |
| 20260502160144 | 60 | 253 | 0.0 | 0.0 | 0.00 | 0.00 | 0.00 | 41 | 1021.5 |
| 20260502152057 | 57 | 348 | 6.1 | 6.1 | 0.00 | 0.00 | 0.00 | 43 | 1021.4 |
| 20260502151554 | 57 | 351 | 1.7 | 2.6 | 0.00 | 0.00 | 0.00 | 44 | 1021.2 |
| 20260502151052 | 58 | 13 | 2.6 | 4.3 | 0.00 | 0.00 | 0.00 | 44 | 1021.3 |
| 20260502150549 | 57 | 348 | 1.7 | 1.7 | 0.00 | 0.00 | 0.00 | 44 | 1021.3 |
| 20260502130434 | 50 | 16 | 2.6 | 2.6 | 0.00 | 0.00 | 0.00 | 54 | 1020.4 |
| 20260502123417 | 49 | 20 | 3.5 | 4.3 | 0.00 | 0.00 | 0.00 | 55 | 1020.1 |
| 20260502122914 | 49 | 29 | 4.3 | 5.2 | 0.00 | 0.00 | 0.00 | 54 | 1020.0 |
| 20260502122410 | 49 | 40 | 4.3 | 4.3 | 0.00 | 0.00 | 0.00 | 54 | 1019.9 |
| 20260502121909 | 49 | 12 | 2.6 | 2.6 | 0.00 | 0.00 | 0.00 | 54 | 1019.8 |
| 20260502121405 | 48 | 19 | 5.2 | 6.1 | 0.00 | 0.00 | 0.00 | 55 | 1019.8 |
| 20260502120903 | 48 | 350 | 2.6 | 2.6 | 0.00 | 0.00 | 0.00 | 54 | 1019.6 |
| 20260502120358 | 47 | 25 | 1.7 | 1.7 | 0.00 | 0.00 | 0.00 | 55 | 1019.6 |
| 20260502115856 | 45 | 341 | 2.6 | 2.6 | 0.00 | 0.00 | 0.00 | 58 | 1019.6 |
| 20260502115353 | 44 | 348 | 2.6 | 2.6 | 0.00 | 0.00 | 0.00 | 60 | 1019.8 |
| 20260502114849 | 45 | 350 | 0.0 | 0.0 | 0.00 | 0.00 | 0.00 | 58 | 1019.6 |
| 20260502114346 | 44 | 330 | 1.7 | 1.7 | 0.00 | 0.00 | 0.00 | 58 | 1019.2 |
| 20260502113843 | 45 | 325 | 1.7 | 1.7 | 0.00 | 0.00 | 0.00 | 58 | 1019.1 |
| 20260502113341 | 45 | 349 | 1.7 | 1.7 | 0.00 | 0.00 | 0.00 | 58 | 1019.1 |
| 20260502112839 | 44 | 346 | 1.7 | 2.6 | 0.00 | 0.00 | 0.00 | 59 | 1019.0 |
| 20260502112336 | 43 | 310 | 0.9 | 0.9 | 0.00 | 0.00 | 0.00 | 60 | 1019.1 |
| 20260502111834 | 44 | 310 | 0.0 | 0.9 | 0.00 | 0.00 | 0.00 | 60 | 1019.0 |
| 20260502111331 | 44 | 313 | 0.0 | 0.0 | 0.00 | 0.00 | 0.00 | 59 | 1018.7 |
| 20260502110828 | 44 | 326 | 0.9 | 0.9 | 0.00 | 0.00 | 0.00 | 58 | 1018.7 |
| 20260502110326 | 45 | 334 | 0.9 | 1.7 | 0.00 | 0.00 | 0.00 | 58 | 1018.7 |
| 20260502105823 | 46 | 331 | 1.7 | 1.7 | 0.00 | 0.00 | 0.00 | 56 | 1018.6 |
| 20260502105320 | 47 | 311 | 0.9 | 0.9 | 0.00 | 0.00 | 0.00 | 55 | 1018.5 |
| 20260502104818 | 47 | 341 | 1.7 | 2.6 | 0.00 | 0.00 | 0.00 | 55 | 1018.6 |
| 20260502104315 | 47 | 324 | 1.7 | 2.6 | 0.00 | 0.00 | 0.00 | 53 | 1018.6 |
| 20260502103812 | 48 | 348 | 3.5 | 4.3 | 0.00 | 0.00 | 0.00 | 53 | 1018.6 |
| 20260502103310 | 48 | 328 | 2.6 | 2.6 | 0.00 | 0.00 | 0.00 | 52 | 1018.3 |
| 20260502102807 | 48 | 344 | 3.5 | 4.3 | 0.00 | 0.00 | 0.00 | 51 | 1018.3 |
| 20260502102306 | 48 | 340 | 2.6 | 2.6 | 0.00 | 0.00 | 0.00 | 52 | 1018.0 |
| 20260502101801 | 48 | 322 | 1.7 | 2.6 | 0.00 | 0.00 | 0.00 | 53 | 1017.9 |
| 20260502101259 | 48 | 341 | 2.6 | 2.6 | 0.00 | 0.00 | 0.00 | 54 | 1017.9 |
| 20260502100757 | 48 | 340 | 2.6 | 2.6 | 0.00 | 0.00 | 0.00 | 52 | 1017.8 |
| 20260502100256 | 48 | 318 | 0.9 | 0.9 | 0.00 | 0.00 | 0.00 | 53 | 1017.8 |
| 20260502091229 | 47 | 350 | 1.7 | 1.7 | 0.00 | 0.00 | 0.00 | 52 | 1017.4 |
| 20260502090727 | 46 | 356 | 1.7 | 1.7 | 0.00 | 0.00 | 0.00 | 55 | 1017.3 |
| 20260502090223 | 47 | 359 | 1.7 | 1.7 | 0.00 | 0.00 | 0.00 | 53 | 1017.4 |
| 20260502071119 | 46 | 155 | 0.0 | 0.0 | 0.00 | 0.00 | 0.00 | 48 | 1016.8 |
| 20260502070617 | 45 | 155 | 0.0 | 0.0 | 0.00 | 0.00 | 0.00 | 52 | 1016.9 |
| 20260502070115 | 45 | 153 | 0.0 | 0.0 | 0.00 | 0.00 | 0.00 | 48 | 1016.7 |
| 20260502065613 | 46 | 152 | 0.0 | 0.0 | 0.00 | 0.00 | 0.00 | 47 | 1016.7 |
| 20260502065110 | 46 | 152 | 0.0 | 0.0 | 0.00 | 0.00 | 0.00 | 46 | 1016.8 |
| 20260502064609 | 44 | 152 | 0.0 | 0.0 | 0.00 | 0.00 | 0.00 | 46 | 1016.9 |
| 20260502064106 | 45 | 152 | 0.0 | 0.0 | 0.00 | 0.00 | 0.00 | 46 | 1016.8 |
| 20260502063603 | 45 | 152 | 0.0 | 0.0 | 0.00 | 0.00 | 0.00 | 45 | 1016.8 |
| 20260502063101 | 45 | 152 | 0.0 | 0.0 | 0.00 | 0.00 | 0.00 | 46 | 1016.9 |
| 20260502062558 | 46 | 152 | 0.0 | 0.0 | 0.00 | 0.00 | 0.00 | 44 | 1016.8 |
| 20260502062055 | 46 | 151 | 0.0 | 0.0 | 0.00 | 0.00 | 0.00 | 44 | 1016.9 |
| 20260502061553 | 47 | 145 | 0.9 | 0.9 | 0.00 | 0.00 | 0.00 | 42 | 1017.1 |
| 20260502061050 | 47 | 140 | 0.0 | 0.0 | 0.00 | 0.00 | 0.00 | 41 | 1017.1 |
| 20260502060545 | 46 | 124 | 2.6 | 2.6 | 0.00 | 0.00 | 0.00 | 42 | 1016.8 |
| 20260502060043 | 46 | 141 | 0.9 | 0.9 | 0.00 | 0.00 | 0.00 | 43 | 1016.8 |
| 20260502055540 | 47 | 137 | 2.6 | 2.6 | 0.00 | 0.00 | 0.00 | 42 | 1016.7 |
| 20260502055038 | 48 | 112 | 0.0 | 0.9 | 0.00 | 0.00 | 0.00 | 43 | 1016.6 |
| 20260502054537 | 48 | 66 | 0.0 | 0.0 | 0.00 | 0.00 | 0.00 | 43 | 1016.4 |
| 20260502054033 | 47 | 104 | 0.9 | 1.7 | 0.00 | 0.00 | 0.00 | 45 | 1016.5 |
| 20260502053530 | 47 | 247 | 0.9 | 0.9 | 0.00 | 0.00 | 0.00 | 46 | 1016.5 |
| 20260502053028 | 48 | 274 | 0.0 | 0.0 | 0.00 | 0.00 | 0.00 | 46 | 1016.3 |
| 20260502052527 | 49 | 278 | 0.0 | 0.0 | 0.00 | 0.00 | 0.00 | 46 | 1016.4 |
| 20260502052024 | 49 | 279 | 0.0 | 0.0 | 0.00 | 0.00 | 0.00 | 45 | 1016.3 |
| 20260502051522 | 50 | 280 | 0.0 | 0.0 | 0.00 | 0.00 | 0.00 | 44 | 1016.3 |
| 20260502051020 | 51 | 291 | 0.0 | 0.0 | 0.00 | 0.00 | 0.00 | 41 | 1016.1 |
| 20260502050515 | 52 | 296 | 0.0 | 0.0 | 0.00 | 0.00 | 0.00 | 40 | 1016.3 |
| 20260502050013 | 53 | 298 | 0.9 | 0.9 | 0.00 | 0.00 | 0.00 | 38 | 1016.1 |
| 20260502045509 | 53 | 297 | 1.7 | 1.7 | 0.00 | 0.00 | 0.00 | 38 | 1016.2 |
| 20260502045007 | 54 | 313 | 1.7 | 1.7 | 0.00 | 0.00 | 0.00 | 37 | 1016.0 |
| 20260502044503 | 54 | 322 | 1.7 | 1.7 | 0.00 | 0.00 | 0.00 | 36 | 1016.2 |
| 20260502043959 | 54 | 314 | 0.9 | 0.9 | 0.00 | 0.00 | 0.00 | 36 | 1016.2 |
| 20260502043457 | 54 | 323 | 1.7 | 1.7 | 0.00 | 0.00 | 0.00 | 36 | 1016.0 |
| 20260502042956 | 54 | 300 | 0.9 | 1.7 | 0.00 | 0.00 | 0.00 | 36 | 1016.2 |
| 20260502042454 | 53 | 284 | 0.0 | 0.0 | 0.00 | 0.00 | 0.00 | 37 | 1016.0 |
| 20260502041951 | 53 | 283 | 0.9 | 0.9 | 0.00 | 0.00 | 0.00 | 37 | 1016.2 |
| 20260502041449 | 53 | 284 | 0.9 | 1.7 | 0.00 | 0.00 | 0.00 | 37 | 1016.2 |
| 20260502040945 | 52 | 282 | 0.9 | 0.9 | 0.00 | 0.00 | 0.00 | 38 | 1016.1 |
| 20260502040442 | 52 | 281 | 0.0 | 0.0 | 0.00 | 0.00 | 0.00 | 38 | 1016.2 |
| 20260502035938 | 52 | 281 | 0.0 | 0.0 | 0.00 | 0.00 | 0.00 | 37 | 1016.0 |
| 20260502035434 | 53 | 281 | 0.0 | 0.0 | 0.00 | 0.00 | 0.00 | 36 | 1016.2 |
| 20260502034933 | 53 | 281 | 0.0 | 0.0 | 0.00 | 0.00 | 0.00 | 34 | 1016.2 |
| 20260502034431 | 52 | 281 | 0.0 | 0.0 | 0.00 | 0.00 | 0.00 | 37 | 1016.0 |
| 20260502033929 | 52 | 281 | 0.0 | 0.0 | 0.00 | 0.00 | 0.00 | 38 | 1016.0 |
| 20260502033426 | 53 | 281 | 0.0 | 0.0 | 0.00 | 0.00 | 0.00 | 36 | 1015.9 |
| 20260502032923 | 55 | 282 | 0.0 | 0.0 | 0.00 | 0.00 | 0.00 | 35 | 1015.9 |
| 20260502032419 | 55 | 284 | 0.0 | 0.0 | 0.00 | 0.00 | 0.00 | 34 | 1016.0 |
| 20260502031916 | 54 | 284 | 0.0 | 0.0 | 0.00 | 0.00 | 0.00 | 37 | 1015.9 |
| 20260502031415 | 55 | 294 | 0.0 | 0.0 | 0.00 | 0.00 | 0.00 | 37 | 1015.6 |
| 20260502030913 | 56 | 283 | 0.0 | 0.0 | 0.00 | 0.00 | 0.00 | 36 | 1015.5 |
| 20260502030411 | 56 | 283 | 0.0 | 0.0 | 0.00 | 0.00 | 0.00 | 35 | 1015.6 |
| 20260502025909 | 57 | 283 | 0.0 | 0.0 | 0.00 | 0.00 | 0.00 | 34 | 1015.5 |
| 20260502025405 | 57 | 284 | 0.0 | 0.0 | 0.00 | 0.00 | 0.00 | 33 | 1015.5 |
| 20260502024903 | 57 | 298 | 0.0 | 0.0 | 0.00 | 0.00 | 0.00 | 35 | 1015.5 |
| 20260502024401 | 58 | 279 | 0.0 | 0.0 | 0.00 | 0.00 | 0.00 | 34 | 1015.3 |
| 20260502023858 | 59 | 281 | 0.0 | 0.9 | 0.00 | 0.00 | 0.00 | 32 | 1015.2 |
| 20260502023355 | 60 | 298 | 1.7 | 1.7 | 0.00 | 0.00 | 0.00 | 30 | 1015.4 |
| 20260502022854 | 61 | 266 | 0.0 | 0.0 | 0.00 | 0.00 | 0.00 | 29 | 1015.3 |
| 20260502022349 | 62 | 265 | 0.0 | 0.0 | 0.00 | 0.00 | 0.00 | 27 | 1015.2 |
| 20260502021846 | 63 | 265 | 0.0 | 0.0 | 0.00 | 0.00 | 0.00 | 26 | 1015.2 |
| 20260502021344 | 64 | 265 | 0.0 | 0.0 | 0.00 | 0.00 | 0.00 | 26 | 1015.1 |
| 20260502020841 | 64 | 272 | 0.0 | 0.0 | 0.00 | 0.00 | 0.00 | 26 | 1015.2 |